• In Denmark
  • List of Countries
  • For 7 days
  • Water Temperature
  • Satellite Maps
  • Weather Map
  • Weather Widgets
  • user-avatar
    Login

    Hourly Weather Newcastle

    Today, 16 November, Friday

    Time Temperature Precipitation Wind Pressure Humidity
    00:00 +17°C° 0.2 mm 5 mps 764 mmHg 93%
    01:00 +17°C° 0.2 mm 5 mps 764 mmHg 94%
    02:00 +17°C° 0.2 mm 5 mps 764 mmHg 94%
    03:00 +16°C° 0.2 mm 5 mps 764 mmHg 94%
    04:00 +16°C° 0 mm 5 mps 764 mmHg 95%
    05:00 +16°C° 0.2 mm 5 mps 764 mmHg 94%
    06:00 +18°C° 0.2 mm 4 mps 764 mmHg 93%
    07:00 +18°C° 0.2 mm 4 mps 764 mmHg 93%
    08:00 +18°C° 0.1 mm 4 mps 764 mmHg 92%
    09:00 +18°C° 0.1 mm 3 mps 764 mmHg 91%
    10:00 +18°C° 0 mm 3 mps 764 mmHg 89%
    11:00 +19°C° 0.1 mm 3 mps 764 mmHg 86%
    12:00 +20°C° 0.1 mm 3 mps 763 mmHg 82%
    13:00 +20°C° 0.1 mm 3 mps 763 mmHg 79%
    14:00 +21°C° 0 mm 3 mps 763 mmHg 77%
    15:00 +21°C° 0 mm 3 mps 762 mmHg 75%
    16:00 +21°C° 0 mm 3 mps 762 mmHg 73%
    17:00 +20°C° 0 mm 2 mps 762 mmHg 79%
    18:00 +19°C° 0 mm 2 mps 762 mmHg 85%
    19:00 +18°C° 0 mm 2 mps 762 mmHg 91%
    20:00 +17°C° 0 mm 2 mps 762 mmHg 93%
    21:00 +18°C° 0 mm 1 mps 763 mmHg 95%
    22:00 +16°C° 0 mm 1 mps 763 mmHg 97%
    23:00 +16°C° 0 mm 1 mps 763 mmHg 97%

    Tomorrow, 17 November, Saturday

    Time Temperature Precipitation Wind Pressure Humidity
    00:00 +16°C° 0 mm 1 mps 762 mmHg 97%
    01:00 +16°C° 0 mm 1 mps 762 mmHg 97%
    02:00 +16°C° 0 mm 1 mps 762 mmHg 97%
    03:00 +16°C° 0 mm 1 mps 762 mmHg 98%
    04:00 +16°C° 0 mm 1 mps 762 mmHg 98%
    05:00 +18°C° 0 mm 1 mps 762 mmHg 93%
    06:00 +20°C° 0 mm 1 mps 762 mmHg 88%
    07:00 +21°C° 0 mm 1 mps 762 mmHg 82%
    08:00 +22°C° 0.1 mm 1 mps 762 mmHg 78%
    09:00 +23°C° 0.1 mm 2 mps 762 mmHg 73%
    10:00 +24°C° 0.1 mm 2 mps 762 mmHg 68%
    11:00 +25°C° 0.4 mm 3 mps 762 mmHg 67%
    12:00 +25°C° 0.4 mm 3 mps 762 mmHg 66%
    13:00 +25°C° 0.4 mm 4 mps 762 mmHg 65%
    14:00 +25°C° 0.1 mm 4 mps 762 mmHg 65%
    15:00 +23°C° 0.1 mm 5 mps 762 mmHg 65%
    16:00 +23°C° 0.1 mm 5 mps 762 mmHg 65%
    17:00 +21°C° 0.3 mm 5 mps 763 mmHg 74%
    18:00 +19°C° 0.3 mm 5 mps 764 mmHg 83%
    19:00 +17°C° 0.3 mm 5 mps 764 mmHg 92%
    20:00 +17°C° 0.3 mm 4 mps 765 mmHg 93%
    21:00 +17°C° 0.3 mm 4 mps 765 mmHg 94%
    22:00 +17°C° 0.3 mm 4 mps 766 mmHg 95%
    23:00 +15°C° 0.2 mm 4 mps 766 mmHg 95%

    Day after tomorrow, 18 November, Sunday

    Time Temperature Precipitation Wind Pressure Humidity
    00:00 +15°C° 0.2 mm 4 mps 765 mmHg 95%
    01:00 +15°C° 0.2 mm 4 mps 765 mmHg 94%
    02:00 +15°C° 0.1 mm 4 mps 765 mmHg 94%
    03:00 +14°C° 0.1 mm 4 mps 765 mmHg 93%
    04:00 +14°C° 0.1 mm 4 mps 765 mmHg 93%
    05:00 +15°C° 0.1 mm 4 mps 766 mmHg 90%
    06:00 +17°C° 0.1 mm 4 mps 766 mmHg 86%
    07:00 +17°C° 0.1 mm 4 mps 766 mmHg 83%
    08:00 +19°C° 0.1 mm 4 mps 766 mmHg 72%
    09:00 +20°C° 0.1 mm 4 mps 766 mmHg 61%
    10:00 +22°C° 0.1 mm 4 mps 767 mmHg 50%
    11:00 +22°C° 0 mm 4 mps 766 mmHg 50%
    12:00 +22°C° 0 mm 4 mps 766 mmHg 49%
    13:00 +22°C° 0 mm 4 mps 766 mmHg 49%
    14:00 +22°C° 0 mm 4 mps 765 mmHg 51%
    15:00 +22°C° 0 mm 4 mps 765 mmHg 53%
    16:00 +21°C° 0 mm 4 mps 765 mmHg 55%
    17:00 +19°C° 0 mm 4 mps 765 mmHg 63%
    18:00 +18°C° 0 mm 3 mps 766 mmHg 71%
    19:00 +16°C° 0 mm 3 mps 766 mmHg 79%
    20:00 +16°C° 0.1 mm 3 mps 766 mmHg 82%
    21:00 +15°C° 0.1 mm 2 mps 767 mmHg 85%
    22:00 +15°C° 0.1 mm 2 mps 767 mmHg 88%
    23:00 +14°C° 0 mm 2 mps 766 mmHg 89%

    19 November, Monday

    Time Temperature Precipitation Wind Pressure Humidity
    00:00 +14°C° 0 mm 2 mps 766 mmHg 90%
    01:00 +14°C° 0 mm 2 mps 766 mmHg 90%
    02:00 +14°C° 0 mm 1 mps 766 mmHg 91%
    03:00 +13°C° 0 mm 1 mps 765 mmHg 92%
    04:00 +13°C° 0 mm 1 mps 765 mmHg 93%
    05:00 +15°C° 0 mm 1 mps 765 mmHg 86%
    06:00 +18°C° 0 mm 1 mps 766 mmHg 78%
    07:00 +20°C° 0 mm 1 mps 766 mmHg 71%
    08:00 +19°C° 0 mm 2 mps 765 mmHg 66%
    09:00 +20°C° 0 mm 2 mps 765 mmHg 60%
    10:00 +21°C° 0 mm 2 mps 765 mmHg 55%
    11:00 +23°C° 0 mm 2 mps 764 mmHg 52%
    12:00 +24°C° 0 mm 2 mps 764 mmHg 49%
    13:00 +24°C° 0 mm 2 mps 763 mmHg 46%
    14:00 +24°C° 0 mm 3 mps 763 mmHg 46%
    15:00 +24°C° 0 mm 3 mps 762 mmHg 46%
    16:00 +24°C° 0 mm 3 mps 762 mmHg 46%
    17:00 +21°C° 0 mm 3 mps 762 mmHg 54%
    18:00 +19°C° 0 mm 3 mps 762 mmHg 62%
    19:00 +17°C° 0 mm 3 mps 762 mmHg 70%
    20:00 +16°C° 0 mm 3 mps 762 mmHg 75%
    21:00 +16°C° 0 mm 3 mps 763 mmHg 79%
    22:00 +14°C° 0 mm 3 mps 763 mmHg 84%
    23:00 +13°C° 0 mm 3 mps 762 mmHg 86%

    20 November, Tuesday

    Time Temperature Precipitation Wind Pressure Humidity
    00:00 +13°C° 0 mm 3 mps 762 mmHg 89%
    01:00 +13°C° 0 mm 2 mps 761 mmHg 91%
    02:00 +13°C° 0 mm 2 mps 761 mmHg 92%
    03:00 +13°C° 0 mm 2 mps 760 mmHg 93%
    04:00 +13°C° 0 mm 2 mps 760 mmHg 94%
    05:00 +14°C° 0 mm 3 mps 760 mmHg 85%
    06:00 +17°C° 0 mm 3 mps 760 mmHg 77%
    07:00 +18°C° 0 mm 3 mps 760 mmHg 68%
    08:00 +22°C° 0 mm 3 mps 759 mmHg 58%
    09:00 +26°C° 0 mm 3 mps 759 mmHg 48%
    10:00 +29°C° 0 mm 3 mps 759 mmHg 37%
    11:00 +30°C° 0 mm 3 mps 757 mmHg 35%
    12:00 +33°C° 0 mm 4 mps 756 mmHg 32%
    13:00 +34°C° 0 mm 5 mps 755 mmHg 29%
    14:00 +34°C° 0 mm 5 mps 754 mmHg 32%
    15:00 +33°C° 0 mm 6 mps 754 mmHg 35%
    16:00 +32°C° 0 mm 6 mps 753 mmHg 38%
    17:00 +29°C° 0 mm 6 mps 753 mmHg 45%
    18:00 +27°C° 0 mm 7 mps 752 mmHg 52%
    19:00 +24°C° 0 mm 7 mps 752 mmHg 59%
    20:00 +23°C° 0.2 mm 6 mps 753 mmHg 65%
    21:00 +22°C° 0.2 mm 6 mps 753 mmHg 71%
    22:00 +21°C° 0.2 mm 5 mps 753 mmHg 77%
    23:00 +21°C° 0.4 mm 5 mps 752 mmHg 82%

    21 November, Wednesday

    Time Temperature Precipitation Wind Pressure Humidity
    00:00 +20°C° 0.4 mm 5 mps 751 mmHg 88%
    01:00 +20°C° 0.4 mm 6 mps 750 mmHg 93%
    02:00 +20°C° 0 mm 5 mps 750 mmHg 91%
    03:00 +20°C° 0 mm 5 mps 749 mmHg 89%
    04:00 +21°C° 0 mm 5 mps 748 mmHg 88%
    05:00 +22°C° 0 mm 5 mps 748 mmHg 83%
    06:00 +23°C° 0 mm 5 mps 748 mmHg 79%
    07:00 +25°C° 0 mm 5 mps 748 mmHg 75%
    08:00 +27°C° 0 mm 5 mps 748 mmHg 68%
    09:00 +29°C° 0 mm 6 mps 748 mmHg 60%
    10:00 +32°C° 0 mm 6 mps 747 mmHg 53%
    11:00 +30°C° 0.5 mm 6 mps 747 mmHg 61%
    12:00 +28°C° 0.5 mm 6 mps 746 mmHg 69%
    13:00 +27°C° 0.5 mm 7 mps 746 mmHg 77%
    14:00 +27°C° 0.3 mm 6 mps 746 mmHg 71%
    15:00 +27°C° 0.3 mm 6 mps 746 mmHg 66%
    16:00 +27°C° 0.3 mm 6 mps 746 mmHg 60%
    17:00 +26°C° 0 mm 6 mps 746 mmHg 59%
    18:00 +23°C° 0 mm 5 mps 746 mmHg 58%
    19:00 +22°C° 0 mm 5 mps 747 mmHg 57%
    20:00 +21°C° 0 mm 5 mps 747 mmHg 62%
    21:00 +20°C° 0 mm 4 mps 747 mmHg 67%
    22:00 +18°C° 0 mm 4 mps 748 mmHg 71%
    23:00 +18°C° 0 mm 4 mps 747 mmHg 70%
    Show more